Retour au catalogue

STARLINK-30119

ActifCommunicationsVLEO
NORAD 56823·PAYLOAD·🇺🇸 United States

Lancé Jun 4, 2023 depuis Cape Canaveral Space Force Station

Loading…

Prochains Passages (prochaines 24 heures)

TLE

FraisSource: CelesTrak SupGP

Époque: Sep 14, 2026, 22:14 UTC

1 56823C 23079A   26257.92687500  .00010306  00000+0  37322-3 0  2570
2 56823  42.9991 118.5733 0001345 264.2227 214.0000 15.27578062    17

Suivez STARLINK-30119 en temps réel avec AllMySat

Download on the App Store